This is the latest recevied weather packets stored in our database for station/object N8VDS-10. If no packets are shown the sender has not sent any weather packets the latest 10 day(s).
| Time | Temp. | Humidity | Pressure | Rain* | Wind** | Luminosity | Snow |
|---|---|---|---|---|---|---|---|
| 1778018409 | 12.78° C | 39% | 1010.6 hPa | 0 mm | - | 121 W/m² | - |
| 1778018107 | 12.78° C | 41% | 1010.8 hPa | 0 mm | - | 128 W/m² | - |
| 1778017804 | 12.78° C | 41% | 1010.5 hPa | 0 mm | - | 128 W/m² | - |
| 1778017502 | 12.78° C | 40% | 1010.6 hPa | 0 mm | - | 141 W/m² | - |
| 1778017198 | 12.78° C | 39% | 1010.8 hPa | 0 mm | - | 134 W/m² | - |
| 1778016896 | 12.78° C | 40% | 1010.7 hPa | 0 mm | - | 136 W/m² | - |
| 1778016592 | 12.78° C | 40% | 1010.8 hPa | 0 mm | - | 147 W/m² | - |
| 1778016289 | 12.78° C | 42% | 1010.6 hPa | 0 mm | - | 152 W/m² | - |
| 1778015985 | 12.78° C | 42% | 1010.5 hPa | 0 mm | - | 153 W/m² | - |
| 1778015683 | 12.78° C | 42% | 1010.5 hPa | 0 mm | - | 158 W/m² | - |
| 1778015379 | 13.33° C | 42% | 1010.8 hPa | 0 mm | - | 163 W/m² | - |
| 1778015077 | 13.33° C | 44% | 1010.8 hPa | 0 mm | - | 164 W/m² | - |
| 1778014773 | 13.33° C | 43% | 1010.7 hPa | 0 mm | - | 166 W/m² | - |
| 1778014472 | 13.33° C | 46% | 1010.6 hPa | 0 mm | - | 163 W/m² | - |
| 1778014168 | 12.78° C | 46% | 1010.5 hPa | 0 mm | - | 165 W/m² | - |
| 1778013866 | 12.78° C | 46% | 1010.6 hPa | 0 mm | - | 158 W/m² | - |
| 1778013563 | 12.78° C | 45% | 1010.7 hPa | 0 mm | - | 149 W/m² | - |
| 1778013259 | 13.33° C | 47% | 1010.7 hPa | 0 mm | - | 170 W/m² | - |
| 1778012956 | 13.33° C | 47% | 1010.8 hPa | 0 mm | - | 167 W/m² | - |
| 1778012652 | 13.33° C | 48% | 1010.7 hPa | 0 mm | - | 180 W/m² | - |
| 1778012349 | 13.33° C | 48% | 1010.6 hPa | 0 mm | - | 214 W/m² | - |
| 1778012046 | 13.33° C | 48% | 1010.7 hPa | 0 mm | - | 228 W/m² | - |
| 1778011744 | 12.78° C | 48% | 1010.7 hPa | 0 mm | - | 204 W/m² | - |
| 1778011441 | 12.78° C | 49% | 1010.7 hPa | 0 mm | - | 170 W/m² | - |
| 1778011136 | 12.78° C | 48% | 1010.8 hPa | 0 mm | - | 174 W/m² | - |
* Rain latest hour (hover to see other rain measurements)
** Current wind speed in m/s (hover to see current wind gust speed)